Location: Demonte
(44.3148°N, 7.2945°E)
Time: 13:01:37
(UTC+01:00)

ISS - Visible Passes

Search period start: 24 February 2018 00:00
Search period end: 06 March 2018 00:00
Orbit: 402 x 407 km, 51.6° (Epoch: 24 February)

Date Brightness Start Highest point End Pass type
(mag) Time Alt. Az. Time Alt. Az. Time Alt. Az.
26 Feb -1.4 06:23:09 10° S 06:25:46 22° SE 06:28:23 10° E visible
27 Feb -0.9 05:32:17 10° SSE 05:33:45 13° SE 05:35:14 10° ESE visible
28 Feb -3.0 06:14:24 10° SW 06:17:34 49° SE 06:20:46 10° ENE visible
01 Mar -2.0 05:24:11 21° S 05:25:26 27° SE 05:28:16 10° ENE visible
02 Mar -0.8 04:34:22 14° ESE 04:34:22 14° ESE 04:35:23 10° E visible
02 Mar -3.9 06:07:02 17° WSW 06:09:28 76° NNW 06:12:45 10° ENE visible
03 Mar -3.6 05:17:04 61° SSE 05:17:12 62° SE 05:20:26 10° ENE visible
04 Mar -0.9 04:26:59 17° E 04:26:59 17° E 04:28:00 10° ENE visible
04 Mar -3.2 05:59:38 21° W 06:01:25 41° NNW 06:04:34 10° NE visible
05 Mar -3.4 05:09:28 56° NNE 05:09:28 56° NNE 05:12:18 10° NE visible
